Orbital elements:
2020 QW3                                                 Earth MOID = 0.0215 AU
Epoch 2020 May 31.0 TT = JDT 2459000.5                  Veres
M 323.25111              (2000.0)            P               Q
n   0.49214418     Peri.  172.77110     +0.77748985     +0.56110930
a   1.5888192      Node   147.34303     -0.60013696     +0.79697186
e   0.3512972      Incl.   31.75850     -0.18800310     -0.22358935
P   2.00           H   25.3           G   0.15           U   7
Residuals in seconds of arc
200817 I41  0.1+  1.4-    200819 033  0.5-  0.1-    200819 104  0.1+  0.1+
200817 I41  0.1-  0.8+    200819 033  0.3-  0.2-    200819 104  0.2+  0.5+
200817 I41  0.3+  0.1+    200819 033  0.6-  0.1-    200819 160  0.1-  0.4+
200817 I41  0.4-  0.2+    200819 033  0.3-  0.7-    200819 104  0.0   0.3+
200819 I41 (3.3+  1.0-)   200819 L01  0.3+  0.5-    200819 160  0.1+  0.1+
200819 I41 (2.0+  1.4-)   200819 L01  0.2+  0.2-    200819 160  0.0   0.9+
200819 I41  0.2-  0.4+    200819 L01  0.2+  0.3-    200819 160  0.3+  0.0
200819 I41  0.2+  1.4+    200819 K19 (0.2-  1.7-)   200819 G34  0.1+  0.5-
200819 I41  1.2+  0.3-    200819 K19  0.3+  0.6+    200819 G34  0.0   0.5+
200819 I41  1.2+  1.1-    200819 L34  0.6-  0.2+    200819 G34  0.2+  0.1-
200819 I41  0.4-  0.9+    200819 K19  0.0   0.1+    200819 K63  0.4+  0.6-
200819 I41  0.2+  0.1+    200819 958  0.2-  0.6+    200819 K63  0.2-  0.2-
200819 F51  0.1-  0.1-    200819 958  0.1-  0.6+    200819 K63  0.4-  0.4-
200819 F51  0.0   0.4-    200819 958  0.2-  0.4+    200819 K63  0.1+  0.3-
200819 I41  0.2-  1.1+    200819 I93  0.1-  0.3-    200820 H21  0.1+  0.2+
200819 I41  0.5-  0.7+    200819 958  0.3+  0.3-    200820 H21  0.1-  0.3+
200819 F52  0.2-  0.6+    200819 B49 (2.1+  0.4+)   200820 H21  0.1+  0.3+
200819 F52  0.1-  0.3+    200819 B49  0.1+  1.4+    200820 H21  0.0   0.3+
200819 L34  0.1-  0.7+    200819 I93  0.3-  0.1+    200820 H21  0.0   0.3+
200819 246  0.2-  0.2+    200819 I93  0.3-  0.4+    200820 I52  0.1-  0.0
200819 246  0.2+  0.3-    200819 L34  0.6+  0.3+    200820 H36 (0.9+  2.0-)
200819 246  0.0   0.3-    200819 204  0.1-  0.3-    200820 I52  0.1+  0.3-
200819 246  0.6+  1.1-    200819 204  0.1-  0.4-    200820 I52  0.3-  0.1+
200819 246  0.4+  0.9-    200819 204  0.4-  0.0     200820 I52  0.2+  0.1-
200819 246  0.0   1.1-    200819 204  0.1-  0.2-
200819 246  0.4+  1.2-    200819 204  0.1+  0.3-

Ephemeris:
2020 QW3                 a,e,i = 1.59, 0.35, 32                  q = 1.0307
Date    TT    R. A. (2000) Decl.     Delta      r    Elong.  Phase     V
2020 07 23    18 08 06.9 +67 19 24   0.2823  1.0532    89.7    74.7    25.3
...
2020 08 07    18 38 55.0 +64 37 58   0.1367  1.0328    94.1    78.4    23.8
...
2020 08 15    19 39 35.7 +54 37 03   0.05698 1.0308   106.8    70.2    21.6
...
2020 08 21    22 08 21.4 -31 52 53   0.02294 1.0333   160.2    19.4    18.2
2020 08 22    22 49 22.6 -49 31 49   0.02878 1.0340   141.2    37.8    19.2
2020 08 23    23 32 28.5 -59 39 52   0.03670 1.0349   129.3    49.1    20.0
...
2020 08 29    02 37 14.7 -72 15 56   0.09464 1.0420   107.3    67.7    22.7
...
2020 09 06    03 49 58.6 -72 20 49   0.1751  1.0565   101.4    69.3    24.1
...
2020 09 21    04 12 18.8 -71 28 41   0.3201  1.0979    98.5    64.8    25.3

M. P. C. Staff               (C) Copyright 2020 MPC           M.P.E.C. 2020-Q150




More information about the Iaude mailing list